Lid_Strength_Index
-0 -1 -1 2 8 9 11 10 8 8 8 6 5 5 6 6 7 9 1 3 3 2 1 -1 -1 -1 -1 -1 -2 -2 -1 -2 -1 -1 -1 -1 -1 -1 -1 -1 -1 -1 -1 -1 -1 -1 -2 -2 -2
-0 -0 1 5 10 12 11 10 10 8 6 5 5 5 6 6 4 3 2 5 4 5 2 1 -1 -1 -1 -1 -2 -2 -1 -1 -2 -1 -1 -1 -1 -1 -1 -1 -1 -1 -2 -1 -1 -1 -2 -2 -2
1 2 5 8 11 12 11 10 8 7 5 5 5 4 5 6 3 2 3 5 5 5 4 3 0 -0 -1 -1 -1 -1 -2 -2 -2 -1 -1 -1 -1 -1 -1 -1 -2 -2 -2 -2 -2 -1 -2 -2 -2
1 3 5 10 11 10 10 8 7 7 6 5 5 6 4 2 2 2 4 5 5 5 4 2 0 2 1 -1 -1 -1 -1 -1 -2 -2 -2 -1 -1 -1 -1 -2 -2 -2 -2 -2 -2 -1 -2 -2 -2
3 5 10 11 11 10 8 8 7 7 7 6 6 6 6 3 3 3 4 4 4 3 3 2 1 2 2 2 1 -0 -1 -1 -1 -1 -1 -1 -1 -1 -2 -2 -2 -2 -2 -2 -1 -1 -1 -1 -2
6 7 11 12 11 10 8 7 8 7 6 7 7 6 5 3 4 4 3 3 2 2 2 2 1 -0 -0 1 2 2 2 -0 -1 -1 -1 -1 -1 -2 -2 -2 -2 -2 -2 -2 -2 -1 -1 -1 -1
8 9 12 12 12 11 9 8 8 8 7 7 7 7 5 4 3 3 3 3 2 2 1 1 1 1 1 -0 -1 2 3 2 2 -1 -1 -1 -1 -1 -2 -1 -1 -2 -1 -1 -1 -1 -2 -2 -2
6 8 12 11 12 11 9 8 8 8 8 6 6 8 6 3 3 4 3 3 2 2 2 1 1 1 1 1 0 0 -0 2 3 2 -1 -0 -0 -0 -1 -1 -1 -1 -1 -1 -1 -1 -1 -1 -1
7 10 12 12 12 11 9 9 8 7 8 7 6 6 6 4 3 3 3 3 2 2 1 1 1 0 0 0 1 -0 -0 0 0 1 1 0 -1 -1 -1 -0 -0 -1 -1 -1 -1 -1 -1 -1 -1
8 11 12 10 9 10 9 9 9 9 8 8 7 5 5 4 4 3 3 3 3 3 2 1 1 1 0 1 -0 -0 0 -0 -0 0 1 0 -1 -1 -0 1 0 -1 -1 -1 -1 -1 -1 -0 -1
9 11 9 9 8 8 8 8 7 9 9 7 7 6 5 5 4 4 3 3 3 3 2 2 1 1 1 1 1 0 0 0 0 -0 -0 -0 -1 -1 -1 -1 -1 -1 1 -1 -1 -1 -1 -1 -1
10 9 8 8 7 7 8 7 7 6 6 5 5 5 5 5 5 4 3 3 3 3 2 1 1 1 1 1 1 1 1 0 0 0 -0 -0 -1 -1 -0 -1 -1 -1 -1 -1 -1 -1 -1 -1 -1
9 8 8 7 7 7 7 8 8 7 6 4 4 4 5 5 4 3 3 2 2 2 2 1 1 1 1 1 1 1 1 1 1 0 0 0 -0 -1 -1 -0 -1 -1 -1 -0 -0 -0 -0 -0 -1
8 8 8 8 8 8 9 8 7 7 5 5 4 4 3 3 5 4 3 3 2 2 2 1 2 2 1 1 1 1 1 1 0 0 -0 0 0 -0 -1 -1 -0 -0 -1 -1 -0 -0 0 -0 -0
8 10 9 9 8 9 8 10 9 6 5 6 5 4 3 3 2 4 4 3 2 2 1 2 2 2 2 1 1 1 1 1 1 0 0 0 0 0 -0 -1 -0 -0 -0 -1 -0 -0 -0 0 0
11 10 12 10 9 9 9 12 8 6 6 7 6 5 4 3 3 3 4 3 2 2 2 2 3 3 2 2 1 1 1 1 1 0 0 0 0 0 0 -0 -0 -1 -1 -0 0 0 1 1 1
12 14 13 12 9 10 10 11 8 6 7 7 6 5 4 3 3 2 3 3 2 2 2 2 2 2 2 2 2 1 1 1 0 0 0 0 0 0 1 1 -0 -1 -0 -0 0 1 1 1 1
15 14 14 13 11 10 11 11 9 7 7 7 6 5 5 4 4 2 3 3 2 2 2 2 2 2 2 2 2 1 1 1 1 1 0 0 0 0 0 1 1 -0 -0 0 0 1 1 1 1
13 14 14 12 11 12 12 11 9 7 7 7 7 5 4 4 3 3 2 3 3 3 2 3 2 2 2 2 2 2 2 2 1 1 1 1 1 1 1 1 1 1 0 0 0 1 2 2 1
13 14 14 13 11 12 12 12 8 8 8 8 7 6 5 4 4 3 2 2 3 3 3 2 2 2 2 2 2 2 2 2 2 2 2 2 2 1 1 1 1 1 1 0 0 1 1 1 1
14 14 14 15 13 12 13 11 10 8 8 6 6 6 5 5 5 4 3 2 2 4 3 3 3 2 2 2 2 2 2 3 4 3 3 2 2 2 1 1 1 0 0 1 0 1 1 2 1
16 13 14 14 15 16 13 16 12 9 8 7 7 6 5 5 5 4 4 3 3 3 3 4 3 3 3 2 3 3 3 4 3 3 3 2 1 1 1 1 0 0 0 1 0 0 1 1 3
15 13 14 14 15 15 15 16 13 10 10 9 7 6 5 5 5 5 4 4 4 4 3 3 3 3 3 3 3 2 3 3 2 2 3 2 1 1 1 1 1 0 0 0 0 1 1 1 2
13 14 15 15 15 16 16 16 14 13 12 10 8 7 6 5 5 4 4 4 4 3 3 3 4 4 3 3 2 2 2 2 3 3 3 3 2 2 1 1 0 -0 0 0 0 0 1 1 1
14 15 16 16 17 17 16 16 13 11 11 10 10 9 7 6 5 4 4 4 3 3 3 3 4 4 3 4 3 3 2 2 3 3 3 3 3 2 2 1 1 1 0 0 0 0 1 1 1
16 15 17 20 19 18 15 17 13 11 10 9 9 8 7 7 6 6 6 5 5 5 5 4 4 5 5 4 4 3 2 3 3 3 3 3 3 3 2 2 1 1 0 0 0 0 1 1 1
16 17 15 18 19 20 16 15 12 11 10 9 8 7 7 6 6 6 5 5 5 5 5 5 5 5 5 5 4 4 3 3 3 3 3 3 3 3 3 2 2 1 1 1 0 1 1 1 1
15 14 18 17 21 21 18 18 15 13 11 10 9 8 8 7 6 6 5 5 4 5 4 4 5 6 6 5 5 5 3 3 3 3 3 3 3 3 3 2 1 2 2 1 1 1 1 1 1
17 17 17 17 18 20 21 16 13 14 12 11 10 9 9 9 8 7 6 6 5 5 5 4 5 5 5 5 5 5 4 3 2 3 3 3 3 3 3 3 2 2 2 2 2 2 2 2 1
16 17 16 18 20 19 19 19 13 14 13 12 11 11 10 9 9 9 8 7 6 6 5 5 4 4 4 4 5 5 4 4 3 3 3 3 3 3 3 3 3 2 2 2 2 2 2 2 2